Regional Weather Roundup
Issued by NWS

Home | Current Version | Previous Version | Graphics & Text | Print | Product List | Glossary On
Versions: 1 2 3 4 5 6 7 8 9 10 11 12 13 14 15 16 17 18 19 20 21 22 23 24 25 26 27 28 29 30 31 32 33 34 35 36 37 38 39 40 41 42 43 44 45 46 47 48 49 50
000
ASUS43 KFSD 020010
RWRSD

WEATHER ROUNDUP FOR SOUTH DAKOTA
NATIONAL WEATHER SERVICE SIOUX FALLS SD
700 PM CDT WED APR 01 2015

NOTE: "FAIR" INDICATES FEW OR NO CLOUDS BELOW 12,000 FEET WITH NO
SIGNIFICANT WEATHER AND/OR OBSTRUCTIONS TO VISIBILITY.


SDZ001>005-009-010-012>017-020100-
NORTHWEST AND NORTH CENTRAL SOUTH DAKOTA

CITY           SKY/WX    TMP DP  RH WIND       PRES   REMARKS
BUFFALO          N/A     54   7  15 NW26G36   29.71R
FAITH            N/A     56  11  16 NW22G31   29.75R
MOBRIDGE       CLOUDY    60  27  28 NW24G30   29.66R
$$

SDZ012>016-024>037-041>051-057-063-072>074-020100-
SOUTHWEST AND SOUTH CENTRAL SOUTH DAKOTA

CITY           SKY/WX    TMP DP  RH WIND       PRES   REMARKS
RAPID CTY ARPT CLOUDY    54  18  24 NW30G37   29.79R
PIERRE         PTSUNNY   58  22  24 NW25      29.70R
CUSTER         MOSUNNY   42  18  37 NW13G22   29.81R
ELLSWORTH AFB  CLOUDY    52  19  26 NW18G28   29.79R
PHILIP         CLOUDY    58  19  22 N18       29.75R
PINE RIDGE     PTSUNNY   52  28  39 N22G28    29.80R
SPEARFISH      FAIR      48  14  25 NW16G23   29.82S
WINNER         FAIR      66  26  22 N22G29    29.69R
$$

SDZ004>011-016>023-039-040-020100-
NORTHEAST SOUTH DAKOTA

CITY           SKY/WX    TMP DP  RH WIND       PRES   REMARKS
ABERDEEN       PTCLDY    64  27  24 NW17G29   29.61R
WATERTOWN      MOCLDY    63  39  41 NW14      29.57R
BROOKINGS      CLOUDY    64  41  42 NW16      29.54F
SISSETON         N/A     63  35  35 N18       29.54R
$$

SDZ017-020-022-023-036>040-048>070-020100-
SOUTHEAST SOUTH DAKOTA

CITY           SKY/WX    TMP DP  RH WIND       PRES   REMARKS
SIOUX FALLS    CLOUDY    68  39  34 N18       29.54R
HURON          MOCLDY    66  33  29 NW18G30   29.62R
CHAMBERLAIN    MOSUNNY   63  28  26 NW13G21   29.67R
MITCHELL       MOCLDY    66  39  37 NW23G31   29.61R HAZE
YANKTON        CLOUDY    70  39  32 NW18G28   29.58R
$$

ABBREVIATIONS USED IN REMARKS
   TC - TEMPERATURE IN CELSIUS
  WCI - WIND CHILL INDEX
   HX - HEAT INDEX
  VSB - VISIBILITY



USA.gov is the U.S. government's official web portal to all federal, state and local government web resources and services.